Time,TemperatureF,DewpointF,PressureIn,WindDirection,WindDirectionDegrees,WindSpeedMPH,WindSpeedGustMPH,Humidity,HourlyPrecipIn,Conditions,Clouds,dailyrainin,SoftwareType,DateUTC
2013-07-14 00:00:00,50.8,49.1,30.04,NNW,345,0.0,0.0,94,0.00,,,0.00,Wunderground v.1.15,2013-07-14 07:00:00,
2013-07-14 00:10:00,50.5,48.8,30.05,NNW,345,0.0,0.0,94,0.00,,,0.00,Wunderground v.1.15,2013-07-14 07:10:00,
2013-07-14 00:20:00,50.2,48.5,30.04,NNW,345,0.0,0.0,94,0.00,,,0.00,Wunderground v.1.15,2013-07-14 07:20:00,
2013-07-14 00:30:00,50.0,48.6,30.05,NNW,345,0.0,0.0,95,0.00,,,0.00,Wunderground v.1.15,2013-07-14 07:30:00,
2013-07-14 00:40:00,49.8,48.4,30.04,NNW,345,0.0,0.0,95,0.00,,,0.00,Wunderground v.1.15,2013-07-14 07:40:00,
2013-07-14 00:50:00,49.5,48.1,30.05,NNW,345,0.0,0.0,95,0.00,,,0.00,Wunderground v.1.15,2013-07-14 07:50:00,
2013-07-14 01:00:00,49.2,47.8,30.05,NNW,345,0.0,0.0,95,0.00,,,0.00,Wunderground v.1.15,2013-07-14 08:00:00,
2013-07-14 01:10:00,49.1,48.0,30.04,NNW,345,0.0,0.0,96,0.00,,,0.00,Wunderground v.1.15,2013-07-14 08:10:00,
2013-07-14 01:20:00,49.3,48.2,30.04,NNW,345,0.0,0.0,96,0.00,,,0.00,Wunderground v.1.15,2013-07-14 08:20:00,
2013-07-14 01:30:00,49.5,48.7,30.04,NNW,345,0.0,0.0,97,0.00,,,0.00,Wunderground v.1.15,2013-07-14 08:30:00,
2013-07-14 01:40:00,49.6,48.8,30.04,NNW,345,0.0,0.0,97,0.00,,,0.00,Wunderground v.1.15,2013-07-14 08:40:00,
2013-07-14 01:50:00,49.7,48.9,30.04,NNW,345,0.0,0.0,97,0.00,,,0.00,Wunderground v.1.15,2013-07-14 08:50:00,
2013-07-14 02:00:00,49.8,49.0,30.04,NNW,345,0.0,0.0,97,0.00,,,0.00,Wunderground v.1.15,2013-07-14 09:00:00,
2013-07-14 02:10:00,49.9,49.1,30.04,NNW,345,0.0,0.0,97,0.00,,,0.00,Wunderground v.1.15,2013-07-14 09:10:00,
2013-07-14 02:20:00,50.1,49.3,30.04,NNW,345,0.0,0.0,97,0.00,,,0.00,Wunderground v.1.15,2013-07-14 09:20:00,
2013-07-14 02:30:00,50.3,49.5,30.04,NNW,345,0.0,0.0,97,0.00,,,0.00,Wunderground v.1.15,2013-07-14 09:30:00,
2013-07-14 02:35:00,50.4,49.6,30.04,NNW,345,0.0,0.0,97,0.00,,,0.00,Wunderground v.1.15,2013-07-14 09:35:00,
2013-07-14 02:40:00,50.4,49.6,30.04,NNW,345,0.0,0.0,97,0.00,,,0.00,Wunderground v.1.15,2013-07-14 09:40:00,
2013-07-14 02:50:00,50.5,49.7,30.04,NNW,345,0.0,0.0,97,0.00,,,0.00,Wunderground v.1.15,2013-07-14 09:50:00,
2013-07-14 02:55:00,50.5,49.7,30.04,NNW,344,0.0,0.0,97,0.00,,,0.00,Wunderground v.1.15,2013-07-14 09:55:00,
2013-07-14 03:00:00,50.4,49.6,30.04,NNW,344,0.0,0.0,97,0.00,,,0.00,Wunderground v.1.15,2013-07-14 10:00:00,
2013-07-14 03:10:00,50.5,49.7,30.04,NNW,344,0.0,0.0,97,0.00,,,0.00,Wunderground v.1.15,2013-07-14 10:10:00,
2013-07-14 03:20:00,50.4,49.6,30.04,ENE,63,0.0,0.0,97,0.00,,,0.00,Wunderground v.1.15,2013-07-14 10:20:00,
2013-07-14 03:30:00,50.3,49.5,30.04,ENE,63,0.0,0.0,97,0.00,,,0.00,Wunderground v.1.15,2013-07-14 10:30:00,
2013-07-14 03:40:00,50.2,49.4,30.04,ENE,63,0.0,0.0,97,0.00,,,0.00,Wunderground v.1.15,2013-07-14 10:40:00,
2013-07-14 03:50:00,50.1,49.3,30.03,NW,313,0.0,0.0,97,0.00,,,0.00,Wunderground v.1.15,2013-07-14 10:50:00,
2013-07-14 04:00:00,50.0,49.2,30.04,NW,313,0.0,0.0,97,0.00,,,0.00,Wunderground v.1.15,2013-07-14 11:00:00,
2013-07-14 04:10:00,49.9,49.1,30.03,NW,313,0.0,0.0,97,0.00,,,0.00,Wunderground v.1.15,2013-07-14 11:10:00,
2013-07-14 04:20:00,49.9,49.4,30.03,WSW,255,0.0,0.0,98,0.00,,,0.00,Wunderground v.1.15,2013-07-14 11:20:00,
2013-07-14 04:30:00,49.9,49.4,30.03,WSW,255,0.0,0.0,98,0.00,,,0.00,Wunderground v.1.15,2013-07-14 11:30:00,
2013-07-14 04:40:00,49.8,49.3,30.03,WSW,255,0.0,0.0,98,0.00,,,0.00,Wunderground v.1.15,2013-07-14 11:40:00,
2013-07-14 04:50:00,49.9,49.4,30.03,South,171,0.0,0.0,98,0.00,,,0.00,Wunderground v.1.15,2013-07-14 11:50:00,
2013-07-14 05:00:00,49.9,49.4,30.03,South,171,0.0,0.0,98,0.00,,,0.00,Wunderground v.1.15,2013-07-14 12:00:00,
2013-07-14 05:10:00,49.9,49.4,30.03,South,171,0.0,0.0,98,0.00,,,0.00,Wunderground v.1.15,2013-07-14 12:10:00,
2013-07-14 05:20:00,50.1,49.6,30.03,South,171,0.0,0.0,98,0.00,,,0.00,Wunderground v.1.15,2013-07-14 12:20:00,
2013-07-14 05:30:00,50.1,49.6,30.03,South,171,0.0,0.0,98,0.00,,,0.00,Wunderground v.1.15,2013-07-14 12:30:00,
2013-07-14 05:40:00,50.1,49.6,30.03,South,171,0.0,0.0,98,0.00,,,0.00,Wunderground v.1.15,2013-07-14 12:40:00,
2013-07-14 05:50:00,50.0,49.5,30.03,South,170,0.0,0.0,98,0.00,,,0.00,Wunderground v.1.15,2013-07-14 12:50:00,
2013-07-14 06:00:00,49.9,49.4,30.03,South,170,0.0,0.0,98,0.00,,,0.00,Wunderground v.1.15,2013-07-14 13:00:00,
2013-07-14 06:10:00,49.9,49.4,30.04,North,360,0.0,0.0,98,0.00,,,0.00,Wunderground v.1.15,2013-07-14 13:10:00,
2013-07-14 06:20:00,49.8,49.3,30.04,North,360,0.0,0.0,98,0.00,,,0.00,Wunderground v.1.15,2013-07-14 13:20:00,
2013-07-14 06:30:00,49.7,49.2,30.03,North,360,0.0,0.0,98,0.00,,,0.00,Wunderground v.1.15,2013-07-14 13:30:00,
2013-07-14 06:40:00,49.7,49.2,30.04,North,360,0.0,0.0,98,0.00,,,0.00,Wunderground v.1.15,2013-07-14 13:40:00,
2013-07-14 06:45:00,49.7,49.2,30.04,North,360,0.0,0.0,98,0.00,,,0.00,Wunderground v.1.15,2013-07-14 13:45:00,
2013-07-14 06:55:00,49.7,49.2,30.04,NE,40,0.0,0.0,98,0.00,,,0.00,Wunderground v.1.15,2013-07-14 13:55:00,
2013-07-14 07:00:00,49.8,49.3,30.04,SE,144,0.0,0.0,98,0.00,,,0.00,Wunderground v.1.15,2013-07-14 14:00:00,
2013-07-14 07:10:00,49.8,49.3,30.04,SE,144,0.0,0.0,98,0.00,,,0.00,Wunderground v.1.15,2013-07-14 14:10:00,
2013-07-14 07:20:00,49.8,49.3,30.04,SE,144,0.0,0.0,98,0.00,,,0.00,Wunderground v.1.15,2013-07-14 14:20:00,
2013-07-14 07:25:00,49.9,49.4,30.04,SE,144,0.0,0.0,98,0.00,,,0.00,Wunderground v.1.15,2013-07-14 14:25:00,
2013-07-14 07:35:00,50.0,49.5,30.04,SE,144,0.0,0.0,98,0.00,,,0.00,Wunderground v.1.15,2013-07-14 14:35:00,
2013-07-14 07:45:00,50.3,49.8,30.04,SE,144,0.0,0.0,98,0.00,,,0.00,Wunderground v.1.15,2013-07-14 14:45:00,
2013-07-14 07:55:00,50.4,49.9,30.04,North,355,0.0,0.0,98,0.00,,,0.00,Wunderground v.1.15,2013-07-14 14:55:00,
2013-07-14 08:00:00,50.3,49.8,30.04,North,355,0.0,0.0,98,0.00,,,0.00,Wunderground v.1.15,2013-07-14 15:00:00,
2013-07-14 08:10:00,50.3,49.8,30.04,NNE,12,0.0,0.0,98,0.00,,,0.00,Wunderground v.1.15,2013-07-14 15:10:00,
2013-07-14 08:20:00,50.3,49.8,30.04,NNW,340,0.0,0.0,98,0.00,,,0.00,Wunderground v.1.15,2013-07-14 15:20:00,
2013-07-14 08:30:00,50.5,50.0,30.04,NNW,343,0.0,0.0,98,0.00,,,0.00,Wunderground v.1.15,2013-07-14 15:30:00,
2013-07-14 08:40:00,50.8,50.3,30.04,NNW,343,0.0,1.0,98,0.00,,,0.00,Wunderground v.1.15,2013-07-14 15:40:00,
2013-07-14 08:50:00,51.0,50.5,30.04,North,5,0.0,0.0,98,0.00,,,0.00,Wunderground v.1.15,2013-07-14 15:50:00,
2013-07-14 09:00:00,51.0,50.5,30.04,North,5,0.0,0.0,98,0.00,,,0.00,Wunderground v.1.15,2013-07-14 16:00:00,
2013-07-14 09:10:00,51.3,50.8,30.04,North,5,0.0,0.0,98,0.00,,,0.00,Wunderground v.1.15,2013-07-14 16:10:00,
2013-07-14 09:20:00,51.8,51.3,30.04,North,11,0.0,1.0,98,0.00,,,0.00,Wunderground v.1.15,2013-07-14 16:20:00,
2013-07-14 09:30:00,52.0,51.5,30.04,NE,49,0.0,0.0,98,0.00,,,0.00,Wunderground v.1.15,2013-07-14 16:30:00,
2013-07-14 09:35:00,52.4,51.9,30.03,North,350,1.0,1.0,98,0.00,,,0.00,Wunderground v.1.15,2013-07-14 16:35:00,
2013-07-14 09:45:00,53.2,52.7,30.03,NNW,327,0.0,1.0,98,0.00,,,0.00,Wunderground v.1.15,2013-07-14 16:45:00,
2013-07-14 09:55:00,54.1,53.0,30.03,NW,313,1.0,1.0,96,0.00,,,0.00,Wunderground v.1.15,2013-07-14 16:55:00,
2013-07-14 10:00:00,55.0,53.0,30.03,WNW,282,0.0,4.0,93,0.00,,,0.00,Wunderground v.1.15,2013-07-14 17:00:00,
2013-07-14 10:10:00,56.2,53.9,30.03,NW,306,2.0,2.0,92,0.00,,,0.00,Wunderground v.1.15,2013-07-14 17:10:00,
2013-07-14 10:20:00,57.7,54.2,30.02,WSW,256,2.0,4.0,88,0.00,,,0.00,Wunderground v.1.15,2013-07-14 17:20:00,
2013-07-14 10:30:00,59.2,54.7,30.02,North,360,2.0,2.0,85,0.00,,,0.00,Wunderground v.1.15,2013-07-14 17:30:00,
2013-07-14 10:35:00,60.2,55.7,30.02,NNW,329,1.0,2.0,85,0.00,,,0.00,Wunderground v.1.15,2013-07-14 17:35:00,
2013-07-14 10:45:00,61.6,56.4,30.01,WNW,286,2.0,5.0,83,0.00,,,0.00,Wunderground v.1.15,2013-07-14 17:45:00,
2013-07-14 11:00:00,64.2,57.2,30.01,East,82,1.0,1.0,78,0.00,,,0.00,Wunderground v.1.15,2013-07-14 18:00:00,
2013-07-14 11:10:00,66.1,58.7,30.00,NW,311,2.0,2.0,77,0.00,,,0.00,Wunderground v.1.15,2013-07-14 18:10:00,
2013-07-14 11:20:00,67.4,58.1,30.00,NW,311,2.0,2.0,72,0.00,,,0.00,Wunderground v.1.15,2013-07-14 18:20:00,
2013-07-14 11:30:00,68.9,57.9,30.00,North,11,2.0,2.0,68,0.00,,,0.00,Wunderground v.1.15,2013-07-14 18:30:00,
2013-07-14 11:40:00,70.5,58.6,30.00,NW,320,3.0,4.0,66,0.00,,,0.00,Wunderground v.1.15,2013-07-14 18:40:00,
2013-07-14 11:50:00,71.3,58.1,30.00,West,277,3.0,4.0,63,0.00,,,0.00,Wunderground v.1.15,2013-07-14 18:50:00,
2013-07-14 12:00:00,72.1,57.9,30.00,WNW,286,4.0,4.0,61,0.00,,,0.00,Wunderground v.1.15,2013-07-14 19:00:00,
2013-07-14 12:10:00,72.2,57.5,30.00,NW,311,4.0,6.0,60,0.00,,,0.00,Wunderground v.1.15,2013-07-14 19:10:00,
2013-07-14 12:20:00,72.3,57.2,30.00,East,82,5.0,5.0,59,0.00,,,0.00,Wunderground v.1.15,2013-07-14 19:20:00,
2013-07-14 12:30:00,72.7,57.1,30.00,West,267,4.0,4.0,58,0.00,,,0.00,Wunderground v.1.15,2013-07-14 19:30:00,
2013-07-14 12:40:00,72.8,56.7,30.00,North,355,4.0,6.0,57,0.00,,,0.00,Wunderground v.1.15,2013-07-14 19:40:00,
2013-07-14 12:50:00,72.9,56.3,30.00,NNE,29,4.0,4.0,56,0.00,,,0.00,Wunderground v.1.15,2013-07-14 19:50:00,
2013-07-14 13:00:00,72.5,56.9,29.99,NNW,348,4.0,4.0,58,0.00,,,0.00,Wunderground v.1.15,2013-07-14 20:00:00,
2013-07-14 13:10:00,72.8,56.2,30.00,NNW,336,4.0,4.0,56,0.00,,,0.00,Wunderground v.1.15,2013-07-14 20:10:00,
2013-07-14 13:20:00,72.6,55.5,30.00,SW,229,5.0,7.0,55,0.00,,,0.00,Wunderground v.1.15,2013-07-14 20:20:00,
2013-07-14 13:30:00,72.1,55.5,29.99,NNW,343,5.0,5.0,56,0.00,,,0.00,Wunderground v.1.15,2013-07-14 20:30:00,
2013-07-14 13:40:00,72.3,55.7,29.99,West,276,5.0,6.0,56,0.00,,,0.00,Wunderground v.1.15,2013-07-14 20:40:00,
2013-07-14 13:45:00,72.2,55.1,29.99,NNW,339,6.0,6.0,55,0.00,,,0.00,Wunderground v.1.15,2013-07-14 20:45:00,
2013-07-14 13:55:00,72.4,56.8,29.99,West,281,3.0,4.0,58,0.00,,,0.00,Wunderground v.1.15,2013-07-14 20:55:00,
2013-07-14 14:00:00,71.9,57.3,29.99,West,275,4.0,7.0,60,0.00,,,0.00,Wunderground v.1.15,2013-07-14 21:00:00,
2013-07-14 14:10:00,72.0,56.4,29.99,NNW,331,4.0,4.0,58,0.00,,,0.00,Wunderground v.1.15,2013-07-14 21:10:00,
2013-07-14 14:20:00,71.6,54.6,29.99,WNW,300,5.0,5.0,55,0.00,,,0.00,Wunderground v.1.15,2013-07-14 21:20:00,
2013-07-14 14:30:00,72.0,56.4,29.99,NNW,330,3.0,3.0,58,0.00,,,0.00,Wunderground v.1.15,2013-07-14 21:30:00,
2013-07-14 14:40:00,72.0,54.9,29.98,NW,319,5.0,8.0,55,0.00,,,0.00,Wunderground v.1.15,2013-07-14 21:40:00,
2013-07-14 14:50:00,71.4,55.4,29.98,WNW,285,6.0,6.0,57,0.00,,,0.00,Wunderground v.1.15,2013-07-14 21:50:00,
2013-07-14 15:00:00,70.4,54.9,29.99,WSW,257,6.0,9.0,58,0.00,,,0.00,Wunderground v.1.15,2013-07-14 22:00:00,
2013-07-14 15:10:00,70.7,53.7,29.99,WNW,300,5.0,7.0,55,0.00,,,0.00,Wunderground v.1.15,2013-07-14 22:10:00,
2013-07-14 15:20:00,71.3,54.8,29.99,WNW,291,5.0,7.0,56,0.00,,,0.00,Wunderground v.1.15,2013-07-14 22:20:00,
2013-07-14 15:30:00,71.2,55.2,29.98,WNW,284,4.0,5.0,57,0.00,,,0.00,Wunderground v.1.15,2013-07-14 22:30:00,
2013-07-14 15:40:00,70.9,53.9,29.98,NW,318,5.0,5.0,55,0.00,,,0.00,Wunderground v.1.15,2013-07-14 22:40:00,
2013-07-14 15:50:00,70.3,54.3,29.98,NW,312,5.0,5.0,57,0.00,,,0.00,Wunderground v.1.15,2013-07-14 22:50:00,
2013-07-14 16:00:00,70.0,54.5,29.98,West,278,4.0,4.0,58,0.00,,,0.00,Wunderground v.1.15,2013-07-14 23:00:00,
2013-07-14 16:10:00,70.1,53.2,29.98,West,279,4.0,4.0,55,0.00,,,0.00,Wunderground v.1.15,2013-07-14 23:10:00,
2013-07-14 16:20:00,70.3,52.4,29.98,WNW,288,3.0,6.0,53,0.00,,,0.00,Wunderground v.1.15,2013-07-14 23:20:00,
2013-07-14 16:30:00,70.3,53.9,29.97,North,360,5.0,5.0,56,0.00,,,0.00,Wunderground v.1.15,2013-07-14 23:30:00,
2013-07-14 16:40:00,70.0,53.6,29.97,NW,321,4.0,7.0,56,0.00,,,0.00,Wunderground v.1.15,2013-07-14 23:40:00,
2013-07-14 16:50:00,70.3,52.9,29.97,WNW,298,3.0,8.0,54,0.00,,,0.00,Wunderground v.1.15,2013-07-14 23:50:00,
2013-07-14 16:55:00,69.6,53.7,29.97,NNW,338,4.0,4.0,57,0.00,,,0.00,Wunderground v.1.15,2013-07-14 23:55:00,
2013-07-14 17:00:00,69.3,52.4,29.97,WNW,297,5.0,8.0,55,0.00,,,0.00,Wunderground v.1.15,2013-07-15 00:00:00,
2013-07-14 17:10:00,68.5,53.1,29.97,NW,308,4.0,8.0,58,0.00,,,0.00,Wunderground v.1.15,2013-07-15 00:10:00,
2013-07-14 17:20:00,68.0,53.6,29.97,WSW,256,5.0,5.0,60,0.00,,,0.00,Wunderground v.1.15,2013-07-15 00:20:00,
2013-07-14 17:30:00,67.8,53.4,29.97,NW,312,4.0,4.0,60,0.00,,,0.00,Wunderground v.1.15,2013-07-15 00:30:00,
2013-07-14 17:40:00,67.4,53.0,29.96,WNW,296,5.0,5.0,60,0.00,,,0.00,Wunderground v.1.15,2013-07-15 00:40:00,
2013-07-14 17:45:00,67.2,53.3,29.96,NW,308,5.0,8.0,61,0.00,,,0.00,Wunderground v.1.15,2013-07-15 00:45:00,
2013-07-14 17:55:00,67.2,53.7,29.96,NW,304,3.0,5.0,62,0.00,,,0.00,Wunderground v.1.15,2013-07-15 00:55:00,
2013-07-14 18:00:00,67.0,52.7,29.96,WNW,290,4.0,4.0,60,0.00,,,0.00,Wunderground v.1.15,2013-07-15 01:00:00,
2013-07-14 18:10:00,66.8,52.9,29.96,NW,315,4.0,4.0,61,0.00,,,0.00,Wunderground v.1.15,2013-07-15 01:10:00,
2013-07-14 18:15:00,66.6,52.7,29.96,WNW,298,3.0,5.0,61,0.00,,,0.00,Wunderground v.1.15,2013-07-15 01:15:00,
2013-07-14 18:25:00,66.5,52.6,29.96,NNW,348,3.0,3.0,61,0.00,,,0.00,Wunderground v.1.15,2013-07-15 01:25:00,
2013-07-14 18:35:00,66.8,53.4,29.96,NNW,327,3.0,4.0,62,0.00,,,0.00,Wunderground v.1.15,2013-07-15 01:35:00,
2013-07-14 18:45:00,66.3,52.0,29.96,North,355,5.0,5.0,60,0.00,,,0.00,Wunderground v.1.15,2013-07-15 01:45:00,
2013-07-14 18:55:00,65.8,52.4,29.97,South,182,4.0,4.0,62,0.00,,,0.00,Wunderground v.1.15,2013-07-15 01:55:00,
2013-07-14 19:00:00,65.5,52.1,29.97,North,355,4.0,4.0,62,0.00,,,0.00,Wunderground v.1.15,2013-07-15 02:00:00,
2013-07-14 19:10:00,65.4,52.5,29.97,NW,308,3.0,4.0,63,0.00,,,0.00,Wunderground v.1.15,2013-07-15 02:10:00,
2013-07-14 19:20:00,65.3,52.4,29.97,West,266,1.0,1.0,63,0.00,,,0.00,Wunderground v.1.15,2013-07-15 02:20:00,
2013-07-14 19:25:00,65.4,52.0,29.97,WNW,297,1.0,2.0,62,0.00,,,0.00,Wunderground v.1.15,2013-07-15 02:25:00,
2013-07-14 19:30:00,65.3,52.4,29.97,NNE,22,1.0,1.0,63,0.00,,,0.00,Wunderground v.1.15,2013-07-15 02:30:00,
2013-07-14 19:40:00,64.3,51.9,29.97,WNW,294,1.0,1.0,64,0.00,,,0.00,Wunderground v.1.15,2013-07-15 02:40:00,
2013-07-14 19:50:00,62.6,50.7,29.97,WNW,298,1.0,2.0,65,0.00,,,0.00,Wunderground v.1.15,2013-07-15 02:50:00,
2013-07-14 20:00:00,61.4,50.7,29.98,West,274,1.0,1.0,68,0.00,,,0.00,Wunderground v.1.15,2013-07-15 03:00:00,
2013-07-14 20:10:00,60.4,50.6,29.98,WSW,242,1.0,1.0,70,0.00,,,0.00,Wunderground v.1.15,2013-07-15 03:10:00,
2013-07-14 20:20:00,59.6,50.9,29.98,West,268,1.0,1.0,73,0.00,,,0.00,Wunderground v.1.15,2013-07-15 03:20:00,
2013-07-14 20:30:00,58.9,50.6,29.98,SSW,205,0.0,2.0,74,0.00,,,0.00,Wunderground v.1.15,2013-07-15 03:30:00,
2013-07-14 20:40:00,58.2,50.3,29.98,WNW,289,1.0,1.0,75,0.00,,,0.00,Wunderground v.1.15,2013-07-15 03:40:00,
2013-07-14 20:50:00,57.6,50.1,29.98,WSW,238,1.0,1.0,76,0.00,,,0.00,Wunderground v.1.15,2013-07-15 03:50:00,
2013-07-14 21:00:00,57.0,50.2,29.98,West,281,1.0,1.0,78,0.00,,,0.00,Wunderground v.1.15,2013-07-15 04:00:00,
2013-07-14 21:05:00,56.8,50.0,29.98,West,269,1.0,1.0,78,0.00,,,0.00,Wunderground v.1.15,2013-07-15 04:05:00,
2013-07-14 21:10:00,56.5,50.1,29.98,WNW,298,0.0,0.0,79,0.00,,,0.00,Wunderground v.1.15,2013-07-15 04:10:00,
2013-07-14 21:15:00,56.1,49.7,29.98,WNW,289,1.0,3.0,79,0.00,,,0.00,Wunderground v.1.15,2013-07-15 04:15:00,
2013-07-14 21:20:00,55.9,49.8,29.98,North,355,2.0,2.0,80,0.00,,,0.00,Wunderground v.1.15,2013-07-15 04:20:00,
2013-07-14 21:25:00,55.7,49.6,29.98,West,267,2.0,2.0,80,0.00,,,0.00,Wunderground v.1.15,2013-07-15 04:25:00,
2013-07-14 21:35:00,55.2,49.8,29.99,WSW,248,1.0,1.0,82,0.00,,,0.00,Wunderground v.1.15,2013-07-15 04:35:00,
2013-07-14 21:40:00,55.0,49.6,29.99,West,269,0.0,0.0,82,0.00,,,0.00,Wunderground v.1.15,2013-07-15 04:40:00,
2013-07-14 21:50:00,54.5,49.4,29.99,West,273,0.0,0.0,83,0.00,,,0.00,Wunderground v.1.15,2013-07-15 04:50:00,
2013-07-14 21:55:00,54.2,49.5,29.99,West,273,0.0,0.0,84,0.00,,,0.00,Wunderground v.1.15,2013-07-15 04:55:00,
2013-07-14 22:00:00,53.9,49.5,29.99,NW,316,0.0,0.0,85,0.00,,,0.00,Wunderground v.1.15,2013-07-15 05:00:00,
2013-07-14 22:10:00,53.5,49.1,29.99,WSW,239,0.0,0.0,85,0.00,,,0.00,Wunderground v.1.15,2013-07-15 05:10:00,
2013-07-14 22:20:00,53.1,49.0,29.99,WSW,239,0.0,0.0,86,0.00,,,0.00,Wunderground v.1.15,2013-07-15 05:20:00,
2013-07-14 22:25:00,52.9,49.1,29.99,NW,325,0.0,0.0,87,0.00,,,0.00,Wunderground v.1.15,2013-07-15 05:25:00,
2013-07-14 22:35:00,52.6,49.1,29.99,WSW,238,0.0,0.0,88,0.00,,,0.00,Wunderground v.1.15,2013-07-15 05:35:00,
2013-07-14 22:45:00,52.2,48.8,29.99,WSW,238,0.0,0.0,88,0.00,,,0.00,Wunderground v.1.15,2013-07-15 05:45:00,
2013-07-14 22:55:00,51.9,48.8,29.99,WSW,238,0.0,0.0,89,0.00,,,0.00,Wunderground v.1.15,2013-07-15 05:55:00,
2013-07-14 23:00:00,51.7,48.6,29.99,WSW,238,0.0,0.0,89,0.00,,,0.00,Wunderground v.1.15,2013-07-15 06:00:00,
2013-07-14 23:10:00,51.4,48.6,29.99,WSW,238,0.0,0.0,90,0.00,,,0.00,Wunderground v.1.15,2013-07-15 06:10:00,
2013-07-14 23:20:00,51.1,48.3,29.99,WSW,238,0.0,0.0,90,0.00,,,0.00,Wunderground v.1.15,2013-07-15 06:20:00,
2013-07-14 23:25:00,51.0,48.5,29.99,WSW,238,0.0,0.0,91,0.00,,,0.00,Wunderground v.1.15,2013-07-15 06:25:00,
2013-07-14 23:35:00,50.8,48.3,29.99,WSW,238,0.0,0.0,91,0.00,,,0.00,Wunderground v.1.15,2013-07-15 06:35:00,
2013-07-14 23:45:00,50.6,48.4,29.99,WSW,238,0.0,0.0,92,0.00,,,0.00,Wunderground v.1.15,2013-07-15 06:45:00,
2013-07-14 23:55:00,50.5,48.3,29.99,WSW,238,0.0,0.0,92,0.00,,,0.00,Wunderground v.1.15,2013-07-15 06:55:00,